Lid_Strength_Index
0 4 4 4 9 9 9 8 6 7 6 4 5 7 7 6 6 6 1 0 -0 -0 -1 -1 -1 -1 -1 -1 -1 -1 -1 -1 -1 -1 -1 -1 -1 -1 -1 -1 -1 -1 -1 -2 -2 -2 -2 -2 -2
2 4 4 6 10 12 9 7 8 6 5 4 3 6 6 6 4 2 1 0 -0 -1 -1 -1 -1 -1 -1 -1 -1 -1 -1 -1 -1 -1 -1 -1 -1 -1 -1 -1 -1 -1 -2 -2 -2 -2 -2 -2 -2
2 4 7 8 10 12 10 8 7 6 5 4 4 4 6 5 2 2 0 -0 -1 -1 -1 -1 -1 -1 -1 -1 -1 -1 -1 -1 -1 -1 -1 -1 -1 -1 -1 -1 -2 -2 -2 -2 -2 -2 -2 -2 -2
1 3 6 10 11 10 11 8 6 6 5 4 4 5 4 2 2 1 -0 -0 -0 -0 -1 -1 -1 -1 -1 -1 -1 -1 -1 -1 -1 -1 -1 -1 -1 -1 -1 -1 -2 -2 -2 -2 -2 -2 -2 -2 -2
1 3 8 9 10 10 10 8 7 6 6 5 4 5 4 2 0 0 0 -0 -0 -0 -1 -1 -1 -1 -1 -1 -1 -1 -1 -1 -1 -1 -1 -1 -1 -1 -1 -2 -2 -2 -2 -2 -2 -2 -2 -2 -2
4 4 8 10 9 10 9 9 7 6 6 5 4 4 4 1 1 1 0 -0 -0 -0 -1 -1 -1 -1 -1 -1 -1 -1 -1 -1 -1 -1 -1 -1 -1 -1 -1 -2 -2 -2 -2 -2 -2 -2 -2 -2 -2
5 6 8 8 8 9 9 7 7 6 5 5 3 5 3 2 1 0 0 -0 -0 -1 -1 -1 -1 -1 -1 -1 -1 -1 -1 -1 -1 -1 -1 -1 -1 -1 -1 -2 -2 -2 -2 -2 -2 -2 -2 -2 -2
3 5 8 7 8 8 7 7 6 6 6 3 3 5 5 3 1 0 0 1 -0 -0 -0 -1 -1 -1 -1 -1 -1 -1 -1 -1 -1 -1 -1 -1 -1 -1 -1 -1 -1 -2 -2 -2 -2 -2 -2 -2 -2
2 7 9 8 7 7 6 8 6 5 5 4 3 3 3 3 3 2 1 1 0 0 -0 -1 -1 -1 -1 -1 -1 -1 -1 -1 -1 -1 -1 -1 -2 -2 -2 -2 -2 -2 -2 -2 -2 -2 -2 -2 -1
5 7 7 5 5 6 5 6 7 8 7 5 3 2 2 3 4 4 3 2 1 1 0 -0 -1 -1 -1 -1 -2 -1 -1 -1 -2 -2 -2 -2 -2 -2 -2 -2 -2 -2 -2 -2 -2 -2 -2 -1 -2
5 7 5 5 4 4 5 6 5 8 8 7 5 4 3 4 4 5 4 2 1 1 0 -0 -1 -1 -1 -1 -1 -1 -1 -1 -1 -2 -2 -2 -2 -2 -1 -1 -1 -2 -2 -2 -2 -2 -2 -2 -2
7 5 4 4 4 4 5 5 6 6 7 6 5 4 4 5 5 5 4 4 1 1 0 -0 -1 -1 -1 -1 -1 -1 -1 -1 -1 -1 -2 -1 -1 -1 -1 -1 -1 -2 -2 -2 -2 -1 -2 -2 -2
7 6 6 5 4 4 4 5 6 6 6 6 6 4 4 5 4 4 4 3 2 1 0 -0 -1 -1 -1 -1 -1 -1 -1 -1 -1 -1 -2 -1 -1 -1 -1 -1 -1 -1 -1 -1 -1 -1 -1 -1 -1
6 7 6 5 5 5 6 6 6 7 6 7 6 6 5 5 6 5 4 3 1 1 1 -0 -0 -1 -1 -0 -0 -1 -1 -1 -1 -1 -1 -2 -1 -1 -1 -1 -1 -1 -1 -1 -1 -1 -1 -1 -1
6 8 7 6 6 6 5 7 8 6 7 7 5 6 5 5 6 7 5 4 3 2 1 -0 -0 -1 -0 -1 -1 -0 -1 -1 -1 -1 -2 -2 -2 -2 -1 -1 -1 -1 -2 -2 -2 -1 -1 -1 -1
8 8 9 7 7 6 6 9 6 6 7 7 7 6 4 5 6 6 6 5 4 3 2 1 0 -0 -0 -0 -0 -0 -1 -1 -1 -1 -1 -1 -2 -2 -1 -1 -1 -2 -2 -1 -1 -0 -0 -0 -0
8 11 10 9 7 7 7 8 6 6 7 8 8 7 6 6 5 5 6 5 4 3 3 2 1 0 -0 -0 -0 -1 -1 -1 -1 -1 -0 -1 -1 -1 -1 -1 -1 -2 -1 -1 -0 -0 -0 0 0
10 10 10 10 8 7 8 8 6 6 6 7 7 7 8 7 6 5 5 5 4 2 1 2 2 -0 -0 -0 -0 0 -0 -0 -1 -1 -1 -1 -1 -1 -1 -1 -1 -1 -0 0 -0 0 -0 0 0
9 9 10 8 7 8 8 8 7 6 6 6 7 7 8 7 6 5 5 4 4 3 2 1 1 -0 0 1 1 1 1 0 0 -0 -1 -1 -1 -1 -1 -0 -0 -0 0 1 1 1 1 1 0
9 10 9 8 7 8 8 9 7 6 6 6 6 6 7 7 6 6 5 4 3 3 2 2 2 1 0 0 0 1 1 0 0 -0 -1 -1 -1 -1 -1 -0 -0 -0 0 0 0 0 1 1 0
9 9 9 10 8 8 8 9 8 7 6 6 5 5 5 5 6 7 5 4 3 3 3 2 1 1 -0 -0 0 1 0 1 1 1 0 -0 -1 -1 -1 -1 -0 -0 0 1 0 0 1 2 1
10 8 9 9 10 12 8 13 9 8 7 7 5 5 5 5 5 4 4 5 4 3 3 2 1 1 1 -0 -1 -0 1 2 1 1 0 -0 -0 -0 -1 -0 -0 -0 -0 -0 0 0 0 1 2
9 8 9 9 10 10 10 12 9 8 9 7 6 6 5 4 3 4 4 3 3 3 3 2 1 1 0 -1 -0 1 1 1 0 0 0 0 -0 -0 -0 -0 -0 -0 0 -0 -0 0 0 1 1
7 8 8 8 10 14 11 11 10 9 8 7 6 6 5 4 3 3 3 2 2 1 1 1 1 0 -0 -0 -0 0 1 1 1 1 1 1 1 0 -0 -0 -0 -0 -0 -0 0 0 0 1 1
7 9 13 13 13 14 10 12 10 8 7 7 7 6 5 3 3 3 3 2 2 2 1 1 1 1 0 0 -0 0 0 0 1 1 1 1 1 1 0 0 0 0 0 -0 -0 0 0 0 1
8 9 12 16 15 13 10 13 9 6 5 5 5 4 4 4 3 3 2 2 2 1 1 1 1 1 0 0 0 0 -0 1 1 0 1 1 1 0 -0 0 0 0 -0 -0 -0 0 0 0 1
9 11 8 11 11 13 11 9 7 6 6 5 5 5 4 4 3 3 2 2 2 1 1 1 1 1 1 1 0 0 0 0 1 0 0 0 0 0 -0 -0 0 0 -0 0 0 1 1 1 0
7 7 11 11 16 16 12 11 11 8 7 6 6 5 4 3 3 3 2 2 1 1 1 0 1 1 1 1 1 1 0 0 0 1 1 1 0 0 0 1 0 0 0 0 0 0 0 1 1
9 10 9 9 11 15 15 12 7 7 6 6 6 4 4 4 3 3 2 2 1 1 1 1 1 1 1 0 0 0 1 1 0 1 1 1 0 0 0 0 1 1 1 0 1 0 1 1 1
7 9 9 15 14 12 13 13 6 6 6 5 5 4 4 3 3 3 2 2 2 2 1 1 1 1 1 0 0 1 1 1 1 1 1 0 0 0 0 0 1 1 1 0 1 1 1 1 1